• MPC Preparation (Info)

  • MPEC 2017-R39 : 2017 QY35

    The following Minor Planet Electronic Circular may be linked-to from your own Web pages, but must not otherwise be redistributed electronically.

    A form allowing access to any MPEC is at the bottom of this page.


    Read MPEC 2017-R38 Read MPEC 2017-R40


    M.P.E.C. 2017-R39                                Issued 2017 Sept. 7, 01:04 UT
    
         The Minor Planet Electronic Circulars contain information on unusual
             minor planets and routine data on comets.  They are published
        on behalf of Division F of the International Astronomical Union by the
              Minor Planet Center, Smithsonian Astrophysical Observatory,
                              Cambridge, MA 02138, U.S.A.
    
                 Prepared using the Tamkin Foundation Computer Network
    
                                  MPC@CFA.HARVARD.EDU
                URL https://www.minorplanetcenter.net/    ISSN 1523-6714
    
                                       2017 QY35
    
    Observations:
         K17Q35Y  C2017 08 08.57446 02 39 02.454+41 11 10.38         21.1 iLER039F51
         K17Q35Y  C2017 08 08.59662 02 39 06.681+41 11 46.83         20.8 iLER039F51
         K17Q35Y* S2017 08 29.12707 03 49 20.90 +49 15 14.6          19   RLER039C51
         K17Q35Y  s2017 08 29.12707 1 -  597.0512 + 4219.7675 + 5365.9352   ER039C51
         K17Q35Y  S2017 08 29.51978 03 50 44.42 +49 22 48.7                LER039C51
         K17Q35Y  s2017 08 29.51978 1 -  632.1305 + 4161.5107 + 5407.2015   ER039C51
         K17Q35Y  S2017 08 29.65068 03 51 12.45 +49 25 18.8                LER039C51
         K17Q35Y  s2017 08 29.65068 1 -  643.6383 + 4141.9402 + 5420.8381   ER039C51
         K17Q35Y  S2017 08 29.65081 03 51 12.31 +49 25 18.9                LER039C51
         K17Q35Y  s2017 08 29.65081 1 -  636.2301 + 4208.5327 + 5370.3432   ER039C51
         K17Q35Y  S2017 08 29.78171 03 51 40.25 +49 27 48.4                LER039C51
         K17Q35Y  s2017 08 29.78171 1 -  647.8166 + 4189.1291 + 5384.0952   ER039C51
         K17Q35Y  S2017 08 30.43636 03 53 59.81 +49 40 09.6                LER039C51
         K17Q35Y  s2017 08 30.43636 1 -  697.8237 + 4158.8446 + 5401.2095   ER039C51
         K17Q35Y  S2017 08 30.56726 03 54 27.83 +49 42 38.6                LER039C51
         K17Q35Y  s2017 08 30.56726 1 -  709.0229 + 4139.2783 + 5414.7470   ER039C51
         K17Q35Y  S2017 08 30.69816 03 54 55.72 +49 45 04.5                LER039C51
         K17Q35Y  s2017 08 30.69816 1 -  720.1292 + 4119.6307 + 5428.2302   ER039C51
         K17Q35Y  S2017 08 30.69829 03 54 55.77 +49 45 05.5                LER039C51
         K17Q35Y  s2017 08 30.69829 1 -  713.9552 + 4186.4384 + 5377.8544   ER039C51
         K17Q35Y  S2017 08 30.76374 03 55 09.75 +49 46 18.3                LER039C51
         K17Q35Y  s2017 08 30.76374 1 -  719.5610 + 4176.7175 + 5384.6529   ER039C51
         K17Q35Y  S2017 08 30.89465 03 55 37.64 +49 48 44.7                LER039C51
         K17Q35Y  s2017 08 30.89465 1 -  730.7054 + 4157.1809 + 5398.2378   ER039C51
         K17Q35Y  S2017 08 30.96010 03 55 51.64 +49 49 57.7                LER039C51
         K17Q35Y  s2017 08 30.96010 1 -  736.2435 + 4147.3669 + 5405.0176   ER039C51
         K17Q35Y  S2017 08 31.02555 03 56 05.70 +49 51 09.9                LER039C51
         K17Q35Y  s2017 08 31.02555 1 -  741.7565 + 4137.5641 + 5411.7677   ER039C51
         K17Q35Y  S2017 08 31.15645 03 56 33.67 +49 53 34.6                LER039C51
         K17Q35Y  s2017 08 31.15645 1 -  752.7086 + 4117.9372 + 5425.1911   ER039C51
         K17Q35Y  S2017 08 31.22190 03 56 47.53 +49 54 47.7                LER039C51
         K17Q35Y  s2017 08 31.22190 1 -  758.1531 + 4108.0622 + 5431.9075   ER039C51
         K17Q35Y  S2017 08 31.28748 03 57 01.47 +49 55 59.8                LER039C51
         K17Q35Y  s2017 08 31.28748 1 -  758.1069 + 4165.1923 + 5388.3789   ER039C51
         K17Q35Y  S2017 08 31.35294 03 57 15.53 +49 57 11.8                LER039C51
         K17Q35Y  s2017 08 31.35294 1 -  763.5935 + 4155.4012 + 5395.1537   ER039C51
         K17Q35Y  S2017 08 31.48384 03 57 43.32 +49 59 35.9                LER039C51
         K17Q35Y  s2017 08 31.48384 1 -  774.4277 + 4136.4720 + 5408.0865   ER039C51
         K17Q35Y  S2017 08 31.54929 03 57 57.30 +50 00 47.5                LER039C51
         K17Q35Y  s2017 08 31.54929 1 -  779.8403 + 4126.6820 + 5414.7788   ER039C51
         K17Q35Y  S2017 08 31.61474 03 58 11.32 +50 01 59.8                LER039C51
         K17Q35Y  s2017 08 31.61474 1 -  785.2310 + 4116.8506 + 5421.4684   ER039C51
         K17Q35Y  S2017 08 31.94213 03 59 21.18 +50 07 56.6                LER039C51
         K17Q35Y  s2017 08 31.94213 1 -  807.1545 + 4134.9194 + 5404.5867   ER039C51
         K17Q35Y  S2017 09 01.07303 03 59 49.25 +50 10 18.3                LER039C51
         K17Q35Y  s2017 09 01.07303 1 -  817.8101 + 4115.2823 + 5417.9412   ER039C51
         K17Q35Y  S2017 09 01.20393 04 00 17.33 +50 12 39.1                LER039C51
         K17Q35Y  s2017 09 01.20393 1 -  828.3689 + 4095.6140 + 5431.2100   ER039C51
         K17Q35Y  S2017 09 01.46587 04 01 13.12 +50 17 19.6                LER039C51
         K17Q35Y  s2017 09 01.46587 1 -  845.1622 + 4123.4489 + 5407.6359   ER039C51
         K17Q35Y  S2017 09 01.59677 04 01 41.14 +50 19 40.7                LER039C51
         K17Q35Y  s2017 09 01.59677 1 -  855.6212 + 4103.7982 + 5420.9062   ER039C51
         K17Q35Y  S2017 09 01.85858 04 02 37.11 +50 24 18.4                LER039C51
         K17Q35Y  s2017 09 01.85858 1 -  876.2541 + 4064.3348 + 5447.2446   ER039C51
         K17Q35Y  C2017 09 03.48003 04 08 23.56 +50 52 24.9          20.1 VqER039V06
         K17Q35Y  C2017 09 03.48060 04 08 23.69 +50 52 25.6          19.9 VqER039V06
         K17Q35Y  C2017 09 05.42159 04 15 18.42 +51 24 27.0          21.2 VqER039V06
         K17Q35Y  C2017 09 05.42216 04 15 18.54 +51 24 27.6          20.3 VqER039V06
         K17Q35Y  C2017 09 05.42331 04 15 18.73 +51 24 28.4          20.8 VqER039V06
    
    Observer details:
    C51 WISE.  Measurers A. K. Mainzer, J. M. Bauer, T. Grav, J. R. Masiero,
        J. W. Dailey, R. M. Cutri, E. L. Wright, C. Nugent, S. Sonnett, E. Kramer.
    F51 Pan-STARRS 1, Haleakala.  Observers J. Bulger, T. Goggia, T. Lowe,
        A. Schultz, M. Willman.  Measurers K. Chambers, S. Chastel, L. Denneau,
        H. Flewelling, M. Huber, E. Lilly, E. Magnier, R. Wainscoat, C. Waters,
        R. Weryk.  1.8-m Ritchey-Chretien + CCD.
    V06 Catalina Sky Survey-Kuiper.  Observers D. C. Fuls, A. R. Gibbs,
        E. J. Christensen.  Measurers E. J. Christensen, D. C. Fuls, A. R. Gibbs,
        A. D. Grauer, J. A. Johnson, R. A. Kowalski, S. M. Larson, G. J. Leonard,
        R. G. Matheny, R. L. Seaman, F. C. Shelly.  1.55-m reflector + CCD.
    
    Orbital elements:
    2017 QY35
    Epoch 2017 Sept. 4.0 TT = JDT 2458000.5                 MPC
    M   1.58928              (2000.0)            P               Q
    n   0.17579027     Peri.   76.54095     +0.89743781     -0.31914354
    a   3.1560182      Node   301.28248     +0.11254905     +0.83317411
    e   0.5343818      Incl.   20.87695     +0.42654200     +0.45162851
    P   5.61           H   18.2           G   0.15           U   7
    Residuals in seconds of arc
    170808 F51  0.0   0.1+    170830 C51  0.2+  0.3-    170831 C51  1.1-  0.8+
    170808 F51  0.0   0.0     170830 C51  0.3-  0.2+    170901 C51  0.0   0.8+
    170829 C51  0.8+  0.4-    170830 C51  0.0   0.4+    170901 C51  1.2+  0.3+
    170829 C51  0.5-  0.0     170831 C51  0.9+  0.1-    170901 C51  0.3-  0.7-
    170829 C51  0.8+  0.1-    170831 C51  1.2+  0.4-    170901 C51  0.2+  0.5+
    170829 C51  0.8-  0.3-    170831 C51  0.1+  0.4+    170901 C51  0.7+  0.2-
    170829 C51  0.4-  0.6-    170831 C51  0.4-  0.0     170903 V06 (3.8-  0.9-)
    170830 C51 (0.7-  1.9-)   170831 C51  0.4+  0.1-    170903 V06 (3.7-  0.8-)
    170830 C51  0.2+  0.0     170831 C51  1.1-  0.2+    170905 V06  0.1+  0.1-
    170830 C51  0.2-  0.7-    170831 C51  1.1-  0.0     170905 V06  0.1+  0.0
    170830 C51  0.1+  0.0     170831 C51  0.6-  0.7+    170905 V06  0.3-  0.4-
    
    Ephemeris:
    2017 QY35                a,e,i = 3.16, 0.53, 21                  q = 1.4695
    Date    TT    R. A. (2000) Decl.     Delta      r     Elong.  Phase     V
    2017 08 08    02 37 10.6 +40 55 24   1.1581  1.4812    85.7    43.0    21.0
    ...
    2017 08 23    03 27 45.1 +47 08 31   1.0984  1.4698    88.2    43.4    20.9
    ...
    2017 08 31    03 56 00.3 +49 50 42   1.0720  1.4704    89.8    43.4    20.9
    ...
    2017 09 06    04 17 21.0 +51 33 38   1.0539  1.4739    91.2    43.1    20.8
    2017 09 07    04 20 53.6 +51 49 13   1.0510  1.4748    91.5    43.1    20.8
    2017 09 08    04 24 25.8 +52 04 21   1.0481  1.4757    91.7    43.0    20.8
    ...
    2017 09 14    04 45 22.1 +53 25 56   1.0312  1.4827    93.4    42.6    20.8
    ...
    2017 09 22    05 11 57.8 +54 51 14   1.0094  1.4959    96.0    41.9    20.7
    ...
    2017 10 07    05 54 24.3 +56 29 02   0.9690  1.5320   102.2    39.6    20.6
    
    A. U. Tomatic                (C) Copyright 2017 MPC           M.P.E.C. 2017-R39
    

    Read MPEC 2017-R38 Read MPEC 2017-R40


    MPEC number:

    Enter an MPEC number in one of the following forms:

    • 1997-B01 (the full form)
    • J97B01 (the packed version of the full form)
    • B01 (the abbreviated form)